Location: Piolenc
(44.1794°N, 4.7641°E)
Time: 04:41:50
(UTC+00:00)

STARLINK-2112 - Pass Details

Date: 27 January 2021
Orbit: 379 x 380 km, 53.1° (Epoch: 27 February)

Event Time Altitude Azimuth Distance (km) Brightness Sun altitude
Exits shadow 05:45:03 11° 221° (SW) 1,350 5.3 -14.2°
Maximum altitude 05:48:01 58° 141° (SE) 459 3.5 -13.7°
Drops below altitude 10° 05:51:09 10° 62° (ENE) 1,424 6.5 -13.1°
Sets 05:53:14 0° 58° (ENE) 2,286 7.5 -12.8°
